User: anonymous   Login
Location: Unspecified
(0.0000°N, 0.0000°E)
Time: 09:32:31
(UTC+00:00)
Language:

Tiros 5 - Orbit

View from above orbital plane
View from above orbital plane
View from above satellite
View from above satellite

Ground track
Ground track

The orbit data is extracted from the following two-line orbital elements,

1 00309U 62025A   17296.19705256 -.00000101  00000-0  18651-4 0  9995
2 00309  58.0918 259.3400 0188161 248.8253 109.2578 14.56702978921233
Epoch (UTC): 23 October 2017 04:43:45
Eccentricity: 0.0188161
inclination: 58.0918°
perigee height: 570 km
apogee height: 837 km
right ascension of ascending node: 259.3400°
argument of perigee: 248.8253°
revolutions per day: 14.56702978
mean anomaly at epoch: 109.2578°
orbit number at epoch: 92123

The dashed part of the orbit path shows where the satellite is in the earth's shadow,  

DLR